星链-34009 (STARLINK-34009)

导读

STARLINK-34009是美国SpaceX公司于2025年5月7日发射的星链(Starlink)低轨互联网卫星,属于全球规模最大卫星星座星链的组网卫星,运行在约550公里近地轨道。它搭载相控阵天线,支持高速宽带传输,通过激光星间链路和OFDM调制技术,可为全球提供低时延互联网接入,扩展星链的覆盖与服务能力。

基本信息
目录编号:
63849
目录名称:
STARLINK-34009
国际标识:
2025-093P
轨道中心:
EARTH
卫星名称:
星链-34009
卫星全名:
星链-34009 (STARLINK-34009)
卫星状态:
在轨 (已飞行403 天)
发射日期:
2025-05-07 UTC
国别 :
美国 (US)
星等 :
--
轨道信息
数据来源 国际轨道数据
星历时间: 2026-06-13T07:38:30+0800
1天前
查看轨道信息
半长轴: 6861.037km
偏心率: 0.0003505
轨道倾角: 43.007°
近地点辐角 275.384°
升交点赤经 256.499°
平近点角 84.661°
近地点: 480.495km
远地点: 485.305km
周期: 94.264分钟
每日圈数: 15.276299
详细信息
固有亮度:
5
最大亮度:
2.5
卫星平台:
Starlink V1.0
覆盖范围:
全球
运营商:
太空探索技术公司
运营商所在国:
美国
制造商(研发单位):
太空探索技术公司
制造商所在国:
美国
使用方式:
暂无
卫星简介
Starlink 计划是 SpaceX 推出的全球卫星互联网项目,通过发射低轨道卫星,为全球尤其是偏远地区提供高速、低延迟的互联网服务。自 2019 年起,Starlink 已部署数千颗卫星,旨在缩小全球数字鸿沟,推动互联网普及。该项目还为军事、航空等行业提供通信支持,带来广泛经济效益。
2D轨道图
3D轨道图
轨道高度分析图
轨道倾角分析图
轨道综合分析图
查看轨道综合分析图